Dover AFB, DE

8:42 PM EST on February 20, 2018 (GMT -0500)
Dover Air Force Base

Weather History for KDOV - October, 2014

Change the Weather History Date:

Wednesday, October 22, 2014

  Actual Average Record
Temperature  
Mean Temperature 54 °F -  
Max Temperature 58 °F 67 °F 83 °F (1979)
Min Temperature 51 °F 45 °F 28 °F (1974)
Degree Days  
Heating Degree Days 11    
Growing Degree Days 4 (Base 50)    
Moisture  
Dew Point 55 °F    
Average Humidity 99    
Maximum Humidity 100    
Minimum Humidity 92    
Precipitation  
Precipitation 0.38 in - - ()
Sea Level Pressure  
Sea Level Pressure 29.81 in    
Wind  
Wind Speed 12 mph (NNW)    
Max Wind Speed 23 mph    
Max Gust Speed 31 mph    
Visibility 9 miles    
Events Rain    
Averages and records for this station are not official NWS values.
T = Trace of Precipitation, MM = Missing Value Source: NWS Daily Summary

Daily Weather History Graph

Daily Weather History Graph

Search for Another Location

Airport or City:

Trip Planner

Search our weather history database for the weather conditions in past years. The results will help you decide how hot, cold, wet, or windy it might be!

Date:

Astronomy

Oct. 22, 2014 Rise Set
Actual Time 7:18 AM EDT 6:13 PM EDT
Civil Twilight 6:51 AM EDT 6:40 PM EDT
Nautical Twilight 6:20 AM EDT 7:11 PM EDT
Astronomical Twilight 5:49 AM EDT 7:42 PM EDT
Moon 5:58 AM EDT (10/22) 5:38 PM EDT (10/22)
Length of Visible Light 11h 49m
Length of Day
10h 54m
Waning Crescent, 2% of the Moon is Illuminated
Oct 22
Waning Crescent
Oct 23
New
Oct 30
First Quarter
Nov 6
Full
Nov 14
Last Quarter

Hourly Weather History & Observations

Time (EDT) Temp. Dew Point Humidity Pressure Visibility Wind Dir Wind Speed Gust Speed Precip Events Conditions
12:39 AM 55.4 °F 55.4 °F 100% 29.83 in 9.0 mi WSW 5.8 mph - N/A   Clear
12:43 AM 55.4 °F 55.4 °F 100% 29.83 in 8.0 mi WSW 5.8 mph - N/A Rain Light Rain
12:58 AM 55.9 °F 55.9 °F 100% 29.84 in 7.0 mi West 5.8 mph - 0.02 in Rain Light Rain
1:03 AM 55.4 °F 55.4 °F 100% 29.83 in 7.0 mi West 5.8 mph - N/A Rain Light Rain
1:58 AM 55.6 °F 55.6 °F 100% 29.82 in 7.0 mi NW 8.1 mph - 0.07 in Rain Light Rain
2:33 AM 55.4 °F 55.4 °F 100% 29.81 in 5.0 mi WNW 6.9 mph - N/A Rain Light Rain
2:43 AM 55.4 °F 55.4 °F 100% 29.80 in 7.0 mi NW 8.1 mph - N/A Rain Light Rain
2:53 AM 55.4 °F 55.4 °F 100% 29.80 in 5.0 mi NW 8.1 mph - N/A Rain Light Rain
2:58 AM 55.6 °F 55.6 °F 100% 29.81 in 5.0 mi NW 8.1 mph - 0.08 in Rain Light Rain
3:33 AM 55.4 °F 55.4 °F 100% 29.78 in 6.0 mi NW 9.2 mph - N/A Rain Light Rain
3:38 AM 55.4 °F 55.4 °F 100% 29.79 in 5.0 mi NW 8.1 mph - N/A Rain Light Rain
3:43 AM 55.4 °F 55.4 °F 100% 29.79 in 5.0 mi WNW 9.2 mph - N/A Rain Light Rain
3:53 AM 55.4 °F 55.4 °F 100% 29.79 in 6.0 mi NW 6.9 mph - N/A Rain Light Rain
3:58 AM 55.4 °F 55.4 °F 100% 29.80 in 6.0 mi NNW 9.2 mph - 0.05 in Rain Light Rain
4:03 AM 55.4 °F 55.4 °F 100% 29.79 in 7.0 mi NNW 10.4 mph - N/A Rain Light Rain
4:13 AM 55.4 °F 55.4 °F 100% 29.79 in 10.0 mi NNW 8.1 mph - N/A Rain Light Rain
4:21 AM 55.4 °F 55.4 °F 100% 29.79 in 10.0 mi WNW 8.1 mph - N/A   Overcast
4:58 AM 55.0 °F 55.0 °F 100% 29.80 in 10.0 mi NNW 12.7 mph - 0.00 in   Overcast
5:08 AM 55.4 °F 55.4 °F 100% 29.79 in 10.0 mi NNW 11.5 mph - N/A   Overcast
5:33 AM 55.4 °F 55.4 °F 100% 29.79 in 10.0 mi NNW 11.5 mph - N/A   Overcast
5:58 AM 55.0 °F 55.0 °F 100% 29.81 in 10.0 mi NNW 9.2 mph - N/A   Overcast
6:08 AM 55.4 °F 55.4 °F 100% 29.80 in 10.0 mi NNW 9.2 mph - N/A   Overcast
6:13 AM 55.4 °F 55.4 °F 100% 29.80 in 10.0 mi NNW 8.1 mph - N/A   Overcast
6:18 AM 55.4 °F 55.4 °F 100% 29.80 in 10.0 mi NNW 6.9 mph - N/A   Overcast
6:58 AM 55.4 °F 55.4 °F 100% 29.82 in 10.0 mi North 11.5 mph - N/A   Overcast
7:03 AM 55.4 °F 55.4 °F 100% 29.81 in 10.0 mi North 11.5 mph - N/A   Overcast
7:18 AM 55.4 °F 55.4 °F 100% 29.81 in 10.0 mi North 12.7 mph - N/A   Overcast
7:23 AM 55.4 °F 55.4 °F 100% 29.81 in 10.0 mi North 12.7 mph - N/A   Overcast
7:58 AM 55.4 °F 55.4 °F 100% 29.83 in 10.0 mi North 10.4 mph - N/A   Overcast
8:03 AM 55.4 °F 55.4 °F 100% 29.82 in 10.0 mi North 10.4 mph - N/A   Overcast
8:08 AM 55.4 °F 55.4 °F 100% 29.83 in 10.0 mi North 12.7 mph - N/A   Overcast
8:28 AM 55.4 °F 55.4 °F 100% 29.83 in 10.0 mi North 10.4 mph - N/A   Mostly Cloudy
8:33 AM 55.4 °F 55.4 °F 100% 29.83 in 10.0 mi North 10.4 mph - N/A   Overcast
8:38 AM 55.4 °F 55.4 °F 100% 29.83 in 10.0 mi North 11.5 mph - N/A   Overcast
8:58 AM 55.9 °F 55.9 °F 100% 29.83 in 10.0 mi North 12.7 mph - N/A   Overcast
9:03 AM 57.2 °F 57.2 °F 100% 29.83 in 10.0 mi North 9.2 mph - N/A   Overcast
9:23 AM 57.2 °F 57.2 °F 100% 29.83 in 10.0 mi North 10.4 mph - N/A   Overcast
9:38 AM 57.2 °F 57.2 °F 100% 29.83 in 10.0 mi North 10.4 mph - N/A   Overcast
9:43 AM 57.2 °F 57.2 °F 100% 29.83 in 10.0 mi North 12.7 mph - N/A   Overcast
9:58 AM 56.7 °F 56.7 °F 100% 29.83 in 10.0 mi North 12.7 mph - N/A   Mostly Cloudy
10:18 AM 57.2 °F 57.2 °F 100% 29.83 in 10.0 mi North 13.8 mph - N/A   Overcast
10:28 AM 57.2 °F 57.2 °F 100% 29.83 in 10.0 mi North 12.7 mph - N/A   Overcast
10:33 AM 57.2 °F 57.2 °F 100% 29.83 in 10.0 mi North 13.8 mph - N/A   Overcast
10:43 AM 57.2 °F 57.2 °F 100% 29.82 in 10.0 mi North 18.4 mph 24.2 mph N/A   Overcast
10:58 AM 57.6 °F 55.9 °F 94% 29.83 in 10.0 mi North 16.1 mph 24.2 mph N/A   Overcast
11:53 AM 57.2 °F 55.4 °F 94% 29.83 in 10.0 mi North 13.8 mph 19.6 mph N/A   Overcast
11:57 AM 57.2 °F 55.4 °F 94% 29.83 in 10.0 mi North 16.1 mph 20.7 mph N/A Rain Light Rain
11:58 AM 57.0 °F 54.7 °F 92% 29.84 in 10.0 mi North 17.3 mph 20.7 mph N/A Rain Light Rain
12:11 PM 57.2 °F 55.4 °F 94% 29.83 in 5.0 mi North 16.1 mph 25.3 mph N/A   Overcast
12:15 PM 55.4 °F 55.4 °F 100% 29.82 in 5.0 mi North 16.1 mph 25.3 mph N/A Rain Light Rain
12:25 PM 55.4 °F 55.4 °F 100% 29.82 in 9.0 mi North 18.4 mph - N/A Rain Light Rain
12:58 PM 55.6 °F 55.6 °F 100% 29.82 in 10.0 mi North 17.3 mph - 0.03 in Rain Light Rain
1:05 PM 55.4 °F 55.4 °F 100% 29.81 in 10.0 mi North 16.1 mph 21.9 mph N/A   Overcast
1:35 PM 57.2 °F 57.2 °F 100% 29.80 in 10.0 mi North 15.0 mph - N/A   Overcast
1:58 PM 56.3 °F 55.8 °F 98% 29.81 in 10.0 mi North 16.1 mph - 0.00 in   Overcast
2:08 PM 57.2 °F 55.4 °F 94% 29.80 in 10.0 mi North 17.3 mph 24.2 mph N/A   Overcast
2:48 PM 55.4 °F 53.6 °F 94% 29.80 in 10.0 mi North 20.7 mph 23.0 mph N/A   Overcast
2:58 PM 55.6 °F 54.0 °F 94% 29.80 in 10.0 mi North 23.0 mph - N/A   Overcast
3:00 PM 55.4 °F 53.6 °F 94% 29.80 in 10.0 mi North 20.7 mph 29.9 mph N/A Rain Light Rain
3:15 PM 55.4 °F 53.6 °F 94% 29.80 in 10.0 mi North 21.9 mph 28.8 mph N/A   Overcast
3:25 PM 55.4 °F 55.4 °F 100% 29.79 in 10.0 mi NNW 20.7 mph 26.5 mph N/A   Overcast
3:40 PM 55.4 °F 55.4 °F 100% 29.79 in 10.0 mi NNW 21.9 mph 28.8 mph N/A   Overcast
3:49 PM 55.4 °F 55.4 °F 100% 29.79 in 10.0 mi NNW 21.9 mph 27.6 mph N/A Rain Light Rain
3:58 PM 55.4 °F 54.5 °F 97% 29.81 in 10.0 mi NNW 20.7 mph 27.6 mph 0.00 in Rain Light Rain
4:27 PM 55.4 °F 55.4 °F 100% 29.80 in 10.0 mi NNW 20.7 mph 29.9 mph N/A   Overcast
4:33 PM 55.4 °F 55.4 °F 100% 29.80 in 10.0 mi NNW 19.6 mph 31.1 mph N/A Rain Light Rain
4:48 PM 55.4 °F 55.4 °F 100% 29.80 in 10.0 mi NNW 19.6 mph 29.9 mph N/A Rain Light Rain
4:58 PM 54.7 °F 54.7 °F 100% 29.81 in 10.0 mi NNW 17.3 mph 25.3 mph 0.02 in Rain Light Rain
5:08 PM 55.4 °F 55.4 °F 100% 29.80 in 10.0 mi NW 17.3 mph - N/A Rain Light Rain
5:23 PM 53.6 °F 53.6 °F 100% 29.80 in 10.0 mi NW 18.4 mph 26.5 mph N/A Rain Light Rain
5:58 PM 53.6 °F 53.6 °F 100% 29.82 in 10.0 mi NNW 16.1 mph - 0.06 in Rain Rain
6:08 PM 53.6 °F 53.6 °F 100% 29.81 in 10.0 mi NW 16.1 mph - N/A Rain Light Rain
6:13 PM 53.6 °F 53.6 °F 100% 29.81 in 10.0 mi NW 17.3 mph - N/A Rain Light Rain
6:43 PM 53.6 °F 53.6 °F 100% 29.81 in 9.0 mi NW 15.0 mph - N/A Rain Light Rain
6:58 PM 53.6 °F 53.6 °F 100% 29.82 in 7.0 mi NW 16.1 mph 25.3 mph 0.04 in Rain Light Rain
7:03 PM 53.6 °F 53.6 °F 100% 29.81 in 8.0 mi NW 13.8 mph 23.0 mph N/A Rain Light Rain
7:13 PM 53.6 °F 53.6 °F 100% 29.81 in 10.0 mi NW 16.1 mph - N/A Rain Light Rain
7:28 PM 53.6 °F 53.6 °F 100% 29.81 in 10.0 mi NW 16.1 mph 24.2 mph N/A Rain Light Rain
7:38 PM 53.6 °F 53.6 °F 100% 29.81 in 9.0 mi NW 16.1 mph - N/A Rain Light Rain
7:43 PM 53.6 °F 53.6 °F 100% 29.81 in 10.0 mi NW 15.0 mph - N/A Rain Light Rain
7:53 PM 53.6 °F 53.6 °F 100% 29.81 in 10.0 mi NW 16.1 mph 24.2 mph N/A   Overcast
7:58 PM 53.4 °F 53.4 °F 100% 29.82 in 10.0 mi NW 18.4 mph 24.2 mph 0.01 in   Overcast
8:06 PM 53.6 °F 53.6 °F 100% 29.81 in 10.0 mi NW 18.4 mph 25.3 mph N/A Rain Light Rain
8:39 PM 53.6 °F 53.6 °F 100% 29.81 in 10.0 mi NW 16.1 mph - N/A   Overcast
8:42 PM 53.6 °F 53.6 °F 100% 29.81 in 10.0 mi NW 17.3 mph - N/A   Light Drizzle
8:58 PM 53.1 °F 53.1 °F 100% 29.82 in 10.0 mi WNW 18.4 mph - 0.00 in Rain Light Rain
9:07 PM 53.6 °F 53.6 °F 100% 29.81 in 10.0 mi NW 13.8 mph 24.2 mph N/A   Overcast
9:16 PM 53.6 °F 53.6 °F 100% 29.81 in 10.0 mi NW 17.3 mph - N/A   Light Drizzle
9:21 PM 53.6 °F 53.6 °F 100% 29.81 in 10.0 mi NW 15.0 mph 24.2 mph N/A Rain Light Rain
9:33 PM 53.6 °F 53.6 °F 100% 29.81 in 10.0 mi NW 15.0 mph - N/A   Overcast
9:38 PM 53.6 °F 53.6 °F 100% 29.81 in 10.0 mi NW 16.1 mph - N/A   Overcast
9:47 PM 53.6 °F 53.6 °F 100% 29.81 in 10.0 mi NW 13.8 mph 21.9 mph N/A Rain Light Rain
9:58 PM 52.5 °F 52.5 °F 100% 29.82 in 10.0 mi NW 18.4 mph 27.6 mph 0.00 in Rain Light Rain
10:17 PM 51.8 °F 51.8 °F 100% 29.80 in 10.0 mi NW 18.4 mph 24.2 mph N/A   Overcast
10:32 PM 51.8 °F 51.8 °F 100% 29.80 in 10.0 mi NW 18.4 mph 25.3 mph N/A Rain Light Rain
10:44 PM 51.8 °F 51.8 °F 100% 29.80 in 10.0 mi NW 18.4 mph 25.3 mph N/A   Mostly Cloudy
10:54 PM 51.8 °F 51.8 °F 100% 29.79 in 10.0 mi NW 16.1 mph - N/A   Overcast
10:58 PM 52.0 °F 50.9 °F 96% 29.80 in 10.0 mi NW 15.0 mph - 0.00 in   Mostly Cloudy
11:05 PM 51.8 °F 50.0 °F 94% 29.79 in 10.0 mi NW 18.4 mph - N/A Rain Light Rain
11:21 PM 51.8 °F 50.0 °F 94% 29.79 in 10.0 mi NW 17.3 mph 25.3 mph N/A   Scattered Clouds
11:58 PM 51.6 °F 49.5 °F 92% 29.78 in 10.0 mi NW 18.4 mph 26.5 mph 0.00 in   Mostly Cloudy